www.pogodaiklimat.ru

Погода и климат >> Архив погоды >> Иран >> Джаск


ПОГОДА в Джаске

  • Прогноз погоды в Джаске
  • Монитор погоды в Джаске

АРХИВ ПОГОДЫ в Джаске

Время (UTC), дата Ветер
(напр.,м/с)
 
Видим.   Явления Облачность Т
(С)
Тd
(С)
f
(%)
Тe
(С)
Тes
(С)
Комфортность P
(гПа)
Po
(гПа)
Тmin
(С)
Tmax
(С)
R
(мм)
R24
(мм)
S
(см)
03 16.05 В 4 4000 м мгла ясно +27.4 +23.0 77 +37 +38 очень
душно
1006.1 1005.6 +26.4
06 16.05 В 3 6000 м мгла ясно +29.6 1007.0 1006.5
09 16.05 ЮВ 3 7000 м мгла ясно +29.7 +24.2 72 +41 +59 опасность
перегрева
1006.4 1005.8 666
12 16.05 Ю 4 5000 м мгла ясно +29.3 +30.1 100 +52 +57 опасность
перегрева
1004.4 1003.8
15 16.05 В 3 5000 м дымка ясно +28.1 +24.9 83 +40 +40 очень
душно
1004.4 1003.9 +30.2 666
18 16.05 Ю 3 5000 м дымка ясно +28.3 +25.2 83 +41 +41 опасность
перегрева
1007.3 1006.7
21 16.05 нст 1 4000 м дымка ясно +27.7 +24.8 84 +39 +39 очень
душно
1007.2 1006.7
00 17.05 нст 1 4000 м дымка ясно +27.3 +24.6 85 +39 +39 очень
душно
1005.9 1005.4
03 17.05 В 2 8000 м дымка ясно +26.7 +24.5 88 +38 +40 очень
душно
1007.3 1006.7 +26.6 666
06 17.05 ЮВ 6 8000 м дымка ясно +29.0 +30.1 100 +51 +57 опасность
перегрева
1008.8 1008.2
09 17.05 ЮВ 6 7000 м дымка ясно +29.3 +25.6 81 +43 +52 опасность
перегрева
1008.1 1007.5
12 17.05 Ю 5 6000 м мгла 4/1 <50 м
[Cb calv Ci sp]
+29.7 +25.8 80 +44 +48 опасность
перегрева
1005.1 1004.6
15 17.05 нст 1 5000 м мгла 3/0
[Ci ing]
+29.2 +25.2 79 +42 +42 опасность
перегрева
1005.8 1005.2 +30.0
18 17.05 ЮВ 6 4000 м дымка ясно +28.2 +25.5 85 +41 +41 опасность
перегрева
1008.1 1007.6
21 17.05 ЮВ 4 4000 м мгла ясно +28.2 +24.2 79 +39 +39 очень
душно
1006.8 1006.3
00 18.05 В 2 4000 м мгла ясно +27.4 +21.8 72 +35 +35 очень
душно
1007.0 1006.5
03 18.05 нст 1 4000 м мгла 8/0
[Cs]
+29.5 +20.7 59 +37 +39 очень
душно
1007.8 1007.2 +26.7
06 18.05 ЮВ 3 6000 м мгла 8/0
[Cs]
+30.1 +23.8 69 +41 +53 опасность
перегрева
1008.8 1008.2
09 18.05 Ю 3 7000 м мгла 8/0
[Cs]
+29.9 +23.9 70 +41 +56 опасность
перегрева
1007.9 1007.3
12 18.05 Ю 2 7000 м мгла 4/0
[Cs]
+30.0 +24.8 74 +43 +50 опасность
перегрева
1005.3 1004.7
15 18.05 ЮЗ 4 6000 м мгла 8/0 2000 м
[As op]
+29.1 +25.0 79 +42 +42 опасность
перегрева
1006.0 1005.5 +30.7 666
18 18.05 В 2 5000 м дымка 4/4 900 м
[Sc]
+28.8 +25.7 83 +43 +43 опасность
перегрева
1008.3 1007.8
21 18.05 В 3 5000 м дымка 5/5 450 м
[St]
+28.4 +25.4 84 +42 +42 опасность
перегрева
1007.0 1006.4
00 19.05 ЮВ 4 5000 м дымка 5/5 900 м
[St]
+28.3 +25.4 84 +41 +41 опасность
перегрева
1006.8 1006.2
03 19.05 ЮВ 6 6000 м дымка 10/0 2000 м
[As op]
+28.1 +25.1 84 +41 +41 опасность
перегрева
1008.0 1007.5 +28.0 666
06 19.05 В 4 8000 м мгла 6/0
[As trans]
+30.0 +30.1 100 +55 +63 опасность
перегрева
1008.8 1008.2
09 19.05 Ю 4 7000 м мгла 6/0
[As trans]
+30.8 +25.7 74 +45 +54 опасность
перегрева
1008.4 1007.9 666
12 19.05 ЮЗ 3 7000 м мгла 9/3 <50 м
[Cb calv As op]
+29.7 +30.0 100 +54 +55 опасность
перегрева
1006.6 1006.0
15 19.05 ЮЗ 3 6000 м дымка 8/1 900 м
[Cb calv As trans]
+29.5 +25.8 81 +44 +44 опасность
перегрева
1006.8 1006.2 +30.9
18 19.05 Ю 2 6000 м дымка 4/1 900 м
[Cb calv As trans]
+29.2 +26.0 83 +44 +44 опасность
перегрева
1009.5 1009.0
21 19.05 ЮЗ 6 6000 м мгла ясно +28.9 +24.4 77 +41 +41 опасность
перегрева
1009.4 1008.8
00 20.05 ЮЗ 2 6000 м мгла 6/1 900 м
[Cb calv As op]
+28.5 +23.6 75 +39 +39 очень
душно
1008.4 1007.8
03 20.05 СВ 2 6000 м мгла 9/1 900 м
[Cb calv As op]
+28.2 +23.1 74 +38 +39 очень
душно
1009.0 1008.4 +27.8
06 20.05 ЮВ 2 6000 м мгла 4/4 1050 м
[Sc]
+33.0 +30.0 84 +60 +70 опасность
перегрева
1009.2 1008.6
09 20.05 ЮЗ 3 10 км 3/0
[Cs]
+31.8 +23.5 62 +43 +60 опасность
перегрева
1008.7 1008.2
12 20.05 ЮЗ 4 10 км 6/0 2000 м
[As trans Cs]
+30.8 1006.8 1006.3
15 20.05 ЮЗ 2 10 км 5/0 2000 м
[As trans Cs]
+30.0 +24.4 72 +42 +42 опасность
перегрева
1006.8 1006.3 +33.3
18 20.05 ЮЗ 2 8000 м мгла ясно +29.2 +24.8 77 +42 +42 опасность
перегрева
1008.6 1008.0
21 20.05 СВ 2 7000 м мгла ясно +28.9 +24.7 78 +41 +41 опасность
перегрева
1007.8 1007.2
00 21.05 ЮВ 4 7000 м мгла ясно +28.8 +24.6 78 +41 +41 опасность
перегрева
1006.7 1006.2
03 21.05 СВ 2 8000 м мгла ясно +29.2 +24.1 74 +41 +43 опасность
перегрева
1008.1 1007.5 +28.2
06 21.05 Ю 3 8000 м мгла 4/0
[Cs]
+31.0 +30.0 94 +57 +70 опасность
перегрева
1008.8 1008.3
09 21.05 ЮЗ 3 10 км 4/0
[Cs]
+31.7 +24.9 67 +45 +61 опасность
перегрева
1008.7 1008.2
12 21.05 З 3 10 км 5/0
[Cs]
+32.2 +30.1 89 +59 +65 опасность
перегрева
1008.1 1007.5
15 21.05 З 5 7000 м мгла 6/0
[Cs]
+30.4 +24.6 71 +43 +43 опасность
перегрева
1006.5 1005.9 +33.2
18 21.05 З 5 7000 м мгла 6/0
[Cs]
+30.2 +25.8 77 +45 +45 опасность
перегрева
1008.3 1007.8
21 21.05 З 4 7000 м дымка 6/0
[Cs]
+29.4 +26.3 83 +45 +45 опасность
перегрева
1007.6 1007.0
00 22.05 СЗ 3 6000 м мгла ясно +29.1 +25.7 82 +43 +43 опасность
перегрева
1008.3 1007.8
03 22.05 СЗ 4 6000 м мгла 4/4 1050 м
[Sc]
+29.9 +23.1 67 +40 +41 очень
душно
1007.4 1006.8 +28.6
06 22.05 З 4 8000 м мгла 1/0
[Cs]
+31.7 +30.0 91 +58 +69 опасность
перегрева
1007.7 1007.2
09 22.05 З 6 7000 м мгла 4/0
[Cs]
+32.6 +24.6 63 +46 +53 опасность
перегрева
1006.2 1005.6 666
12 22.05 З 5 7000 м мгла 5/0
[Cs]
+32.8 +23.4 58 +44 +48 опасность
перегрева
1004.9 1004.3
15 22.05 З 4 7000 м мгла 6/0
[Cs]
+31.2 +22.8 61 +41 +41 опасность
перегрева
1005.1 1004.5 +33.1
18 22.05 З 3 6000 м мгла ясно +30.0 +22.8 65 +40 +40 очень
душно
1006.0 1005.4
21 22.05 З 2 6000 м мгла ясно +30.0 +22.9 66 +40 +40 очень
душно
1004.9 1004.3
00 23.05 З 2 6000 м мгла ясно +29.3 +23.3 70 +40 +40 очень
душно
1004.1 1003.5

 

Местоположение метеостанции Джаск (Иран): широта 25.63 долгота 57.77 высота над уровнем моря 3 м.

В архиве по умолчанию представлена погода в Джаске за последнюю неделю. Архивные данные за месяц целиком и за предыдущие месяцы, начиная с января 2011 года, Вы можете получить, выбрав интересующий диапазон дат из раскрывающегося списка и нажав кнопку "Ввод!".


*Определитесь, кто Вы:
робот инопланетянин человек

Внимание! Время в таблицах - всемирное. Для получения местного времени необходимо прибавить поправку, которая равна 3.5 ч.

Смотрите также архив погоды в соседних городах и на ближайших метеорологических станциях:

Погода в Дибе (Оман) (152 км)
Погода в Фуджейре (ОАЭ) (156 км)
Погода в Эль-Хасаб аэропорту (Оман) (165 км)
Погода в Эль-Хасабе (Оман) (166 км)
Погода в Сухаре (Оман) (173 км)
Погода в Рай-эль-Хайма аэропорту (ОАЭ) (185 км)
Погода в Эс-Сувейке (Оман) (208 км)
Погода в Бендер-Аббасе (Иран) (225 км)
Погода в Шардже (ОАЭ) (228 км)
Погода в Сибе (Оман) (234 км)

Пояснения к столбцам:

Ветер - указаны скорость ветра в м/с - средняя за 10 мин, порывы в срок и между сроками (в фигурных скобках) и направление, откуда дует ветер: С - северный, СВ - северо-восточный, В - восточный, ЮВ - юго-восточный, Ю - южный, ЮЗ - юго-западный, З - западный, СЗ - северо-западный.
Видимость - горизонтальная дальность видимости в метрах или километрах. При видимости от 1 до 10 км при отсутствии осадков обычно наблюдается дымка, при ухудшении видимости до 1 км и менее - туман. В сухую погоду видимость может ухудшаться дымом, пылью или мглою.
Явления - указаны атмосферные явления, наблюдавшиеся в срок или в последний час перед сроком; фигурными скобками обозначены явления, наблюдавшиеся между сроками (за 1-3 часа до срока); квадратными скобками обозначены град или гололедные отложения с указанием их диаметра в мм.
Облачность - указаны через наклонную черту общая и нижняя облачность в баллах и высота нижней границы облаков в метрах; квадратными скобками обозначены формы облаков: Ci - перистые, Cs - перисто-слоистые, Cc - перисто-кучевые, Ac - высококучевые, As - высокослоистые, Sc - слоисто-кучевые, Ns - слоисто-дождевые, Cu - кучевые, Cb - кучево-дождевые. Подробнее классификацию облаков см. в Атласе облаков (PDF).
T - Температура воздуха - температура, измеренная на высоте 2 м над землей.
Td - Температура точки росы - температура, при понижении до которой содержащийся в воздухе водяной пар достигнет насыщения.
f - Относительная влажность воздуха - влажноcть воздуха, измеренная на высоте 2 м над землей.
Te - Эффективная температура - температура, которую ощущает одетый по сезону человек в тени. Характеристика душности погоды. При расчете учитывается влияние влажности воздуха и скорости ветра на теплоощущения человека.
Tes - Эффективная температура на солнце - температура, которую ощущает человек, с поправкой на солнечный нагрев. Характеристика знойности погоды. Зависит от высоты солнца над горизонтом, облачности и скорости ветра. Ночью, в пасмурную погоду, а также при ветре 12 м/с и более поправка равна нулю.
P - Атмосферное давление - приведенное к уровню моря атмосферное давление.
Po - Атмосферное давление - измеренное на уровне метеостанции атмосферное давление.
Tmin - Минимальная температура - минимум температуры воздуха на высоте 2 м над землей.
Tmax - Максимальная температура - максимум температуры воздуха на высоте 2 м над землей.
R - Количество осадков - Количество выпавших осадков за период времени, мм. При наведении курсора мыши на число - период времени, за который выпало указанное количество осадков.
R24 - Количество осадков - Количество выпавших осадков за 24 часа, мм.
S - Снежный покров - Высота снежного покрова, см. При наведении курсора мыши на число - состояние снежного покрова и степень покрытия местности в баллах.